Printer-friendly version
Follow the MPC on Twitter Follow the MPC on Facebook The MPC blog
Minor Planet Center

MPEC 2007-W04 : 2007 VD191

The following Minor Planet Electronic Circular may be linked-to from your own Web pages, but must not otherwise be redistributed electronically.

A form allowing access to any MPEC is at the bottom of this page.


Read MPEC 2007-W03 Read MPEC 2007-W05


M.P.E.C. 2007-W04                                Issued 2007 Nov. 16, 14:58 UT

     The Minor Planet Electronic Circulars contain information on unusual
         minor planets and routine data on comets.  They are published
   on behalf of Commission 20 of the International Astronomical Union by the
          Minor Planet Center, Smithsonian Astrophysical Observatory,
                          Cambridge, MA 02138, U.S.A.

             Prepared using the Tamkin Foundation Computer Network

                              MPC@CFA.HARVARD.EDU
          URL http://www.cfa.harvard.edu/iau/mpc.html  ISSN 1523-6714

                                  2007 VD191

Observations:
     K07VJ1D* C2007 11 14.36517 05 13 28.12 -03 38 31.6          20.7 V EW004G96
     K07VJ1D  C2007 11 14.36956 05 13 26.40 -03 38 53.9          20.6 V EW004G96
     K07VJ1D  C2007 11 14.37396 05 13 24.67 -03 39 16.2          20.7 V EW004G96
     K07VJ1D  C2007 11 14.37845 05 13 22.94 -03 39 38.7          20.8 V EW004G96
     K07VJ1D  C2007 11 14.42953 05 13 03.03 -03 43 56.7          20.5 V EW004G96
     K07VJ1D  C2007 11 14.43006 05 13 02.82 -03 43 59.5          20.5 V EW004G96
     K07VJ1D  C2007 11 14.43061 05 13 02.64 -03 44 02.4          20.7 V EW004G96
     K07VJ1D  C2007 11 14.43115 05 13 02.42 -03 44 05.2          20.8 V EW004G96
     K07VJ1D  C2007 11 16.43814 05 01 58.26 -06 16 34.8          22.2 V EW004G96
     K07VJ1D  C2007 11 16.43878 05 01 58.04 -06 16 38.2          21.9 V EW004G96
     K07VJ1D  C2007 11 16.43944 05 01 57.79 -06 16 40.0          21.1 V EW004G96
     K07VJ1D  C2007 11 16.44009 05 01 57.61 -06 16 43.4          21.9 V EW004G96

Observer details:
G96 Mt. Lemmon Survey.  Observer A. Boattini.  Measurers E. C. Beshore,
    A. Boattini, G. J. Garradd, A. R. Gibbs, A. D. Grauer, R. E. Hill,
    R. A. Kowalski, S. M. Larson, R. H. McNaught.  1.5-m reflector + CCD.

Orbital elements:
2007 VD191                                               Earth MOID = 0.0191 AU
Epoch 2007 Oct. 27.0 TT = JDT 2454400.5                 MPC
M  50.93989              (2000.0)            P               Q
n   0.83966867     Peri.   95.74800     +0.73946093     +0.65615495
a   1.1127495      Node   223.37159     -0.67109042     +0.70079537
e   0.2456893      Incl.   12.66170     -0.05324632     +0.27990451
P   1.17           H   24.6           G   0.15           U   9
Residuals in seconds of arc
071114 G96  0.2-  0.0     071114 G96  0.4-  0.2+    071116 G96  0.1-  0.3+
071114 G96  0.3-  0.1-    071114 G96  0.5-  0.1+    071116 G96  0.2-  0.5-
071114 G96  0.4-  0.0     071114 G96  0.0   0.1-    071116 G96  0.7-  0.4+
071114 G96  0.1-  0.2+    071114 G96  0.1-  0.2-    071116 G96  0.1-  0.3-

Ephemeris:
2007 VD191               a,e,i = 1.11, 0.25, 13                  q = 0.8394
Date    TT    R. A. (2000) Decl.     Delta      r     Elong.  Phase     V
2007 11 16    05 04.29   -05 45.0    0.101    1.073   145.2    31.8    21.1
2007 11 17    04 59.19   -06 53.0    0.105    1.077   145.7    31.1    21.2
2007 11 18    04 54.44   -07 54.3    0.110    1.081   146.1    30.6    21.3
2007 11 19    04 50.01   -08 49.5    0.114    1.085   146.4    30.3    21.4
2007 11 20    04 45.87   -09 39.2    0.119    1.089   146.6    30.0    21.5
2007 11 21    04 42.00   -10 23.8    0.124    1.094   146.6    29.8    21.6
2007 11 22    04 38.37   -11 03.7    0.129    1.098   146.6    29.7    21.6
2007 11 23    04 34.98   -11 39.5    0.134    1.102   146.4    29.7    21.7
2007 11 24    04 31.80   -12 11.5    0.139    1.106   146.3    29.7    21.8
2007 11 25    04 28.82   -12 39.9    0.144    1.110   146.0    29.8    21.9
2007 11 26    04 26.01   -13 05.1    0.149    1.114   145.7    29.9    22.0

Timothy B. Spahr             (C) Copyright 2007 MPC           M.P.E.C. 2007-W04

Read MPEC 2007-W03 Read MPEC 2007-W05


MPEC number:

Enter an MPEC number in one of the following forms:

  • 1997-B01 (the full form)
  • J97B01 (the packed version of the full form)
  • B01 (the abbreviated form)

Valid HTML 4.01!